Vorticity
8 14 6 -1 8 3 14 8 5 2 6 11 5 5 7 5 8 11 5 8 7 8 9 7 6 6 6 6 7 7 7 6 6 7 2 8 6 2 3 5 0 4 5 2 4 4 4 6 6
2 14 2 2 20 14 15 -7 2 5 8 10 8 4 7 4 6 4 9 7 8 6 6 7 6 7 7 7 7 9 7 4 6 12 4 5 8 6 4 3 3 4 4 4 5 3 5 4 4
2 9 2 8 7 5 16 -12 6 5 10 7 6 6 6 5 8 8 8 8 10 7 7 6 7 6 6 6 8 10 6 4 6 9 5 16 1 0 1 3 3 5 4 4 5 6 6 5 8
12 13 24 13 5 8 26 10 5 10 10 8 5 5 7 9 8 8 8 9 9 7 6 6 5 5 7 7 7 7 10 6 4 0 10 7 7 4 1 3 1 7 4 4 7 5 6 4 6
16 19 11 21 9 6 9 5 9 9 9 7 4 6 10 9 6 7 8 7 7 9 10 8 5 5 6 7 9 7 10 5 4 12 11 3 3 1 2 6 -0 7 5 5 8 5 6 4 5
11 9 11 18 5 7 8 8 5 9 10 5 6 7 11 12 7 8 7 9 10 10 8 7 6 6 7 7 7 8 16 -5 5 18 -2 8 5 2 4 -1 -3 3 6 5 7 5 5 3 4
5 10 18 14 9 10 5 6 4 8 11 10 6 5 13 8 7 7 8 8 9 11 9 7 4 6 9 8 7 20 17 -7 8 10 61 21 1 6 0 10 2 3 4 5 9 4 2 3 4
2 9 14 13 15 7 7 3 4 6 10 11 8 8 11 8 9 8 8 10 11 10 8 8 5 -0 4 7 4 -1 4 4 -2 9 7 26 5 -2 5 2 7 1 4 5 7 4 3 4 3
3 6 12 18 13 7 4 3 4 6 6 6 7 8 10 7 9 9 7 7 8 8 6 8 10 4 20 27 14 11 11 8 8 6 7 16 5 -0 8 -6 7 1 3 6 7 5 4 5 -2
2 4 15 19 16 5 4 5 7 4 6 8 5 5 4 0 6 6 9 6 5 6 3 11 4 27 11 23 37 7 9 15 8 17 1 46 -6 5 6 11 4 0 3 7 6 4 5 6 7
5 -2 5 15 11 15 3 5 7 7 4 7 7 6 4 6 11 7 7 7 6 3 9 5 5 9 13 13 19 26 13 21 9 19 12 14 -3 8 1 6 7 4 4 5 6 4 6 6 6
-3 3 -4 12 10 15 21 1 1 5 7 6 5 3 5 8 7 9 7 7 6 7 6 3 7 -7 16 4 16 20 17 6 5 4 16 12 11 -5 -1 14 -7 5 5 9 3 4 6 9 7
2 9 -2 4 13 10 11 18 11 2 1 5 4 5 2 4 7 5 7 4 3 4 8 7 2 4 5 13 17 27 9 14 9 16 8 2 6 8 -11 10 -5 -5 7 5 5 7 9 9 6
16 3 3 7 1 7 10 4 10 19 10 1 3 4 10 8 7 5 6 5 6 7 5 9 4 7 5 -7 9 23 28 15 12 11 9 22 3 5 4 5 25 10 6 5 7 8 7 5 4
0 12 -1 -2 7 6 9 12 6 9 22 15 4 5 4 2 2 1 5 5 6 6 11 7 7 -1 1 -2 8 1 16 13 28 56 -6 7 10 11 14 13 6 4 2 8 8 6 4 6 6
6 9 3 10 4 5 9 9 9 7 3 13 24 19 6 10 12 8 8 13 9 5 8 9 8 1 11 4 8 1 3 6 3 5 15 25 26 21 22 -3 -7 4 2 7 7 6 5 6 4
7 4 9 10 11 5 9 8 12 9 10 16 13 10 12 10 8 8 12 14 9 8 10 9 9 5 -1 -2 6 6 10 1 6 6 4 6 7 9 5 5 7 3 8 2 3 4 3 4 4
20 11 8 6 1 2 8 6 12 8 10 11 8 9 11 11 12 9 8 8 11 16 14 12 5 21 5 6 4 -0 2 2 6 5 4 4 5 5 7 6 6 4 4 8 7 6 7 8 7
8 15 6 7 1 3 5 9 8 11 9 6 5 6 7 6 8 8 11 14 9 8 18 20 12 5 12 16 5 -7 2 10 7 6 6 5 5 5 3 4 4 4 5 7 -0 7 7 7 6
2 6 7 4 1 4 3 9 8 9 7 5 6 5 5 4 4 5 8 9 10 13 9 9 9 10 7 6 7 6 8 6 7 6 7 6 4 6 3 5 5 5 7 7 6 -2 2 3 5
0 14 11 -1 -2 1 8 8 13 4 10 7 2 2 2 4 6 4 3 6 10 10 13 7 7 15 12 5 7 11 6 8 10 6 8 8 7 12 11 7 9 5 7 6 8 5 16 7 8
3 4 16 27 31 4 12 13 15 10 6 8 9 8 7 8 8 10 10 8 4 6 14 16 13 16 5 10 12 10 8 6 6 7 5 6 8 5 6 6 5 6 5 5 5 5 6 10 10
0 9 17 16 -6 14 5 2 23 18 15 12 13 10 8 6 9 9 11 13 12 12 14 12 13 15 16 9 10 8 7 8 13 9 4 6 5 3 3 4 4 3 4 5 4 5 5 5 4
1 4 -4 54 23 -0 6 2 4 11 15 4 6 5 6 7 6 8 7 8 5 7 10 11 11 12 13 14 13 12 12 9 8 8 6 4 7 7 6 8 9 11 9 11 9 9 8 8 7
-1 7 -4 25 -5 1 6 5 14 13 7 5 4 5 7 8 7 4 4 4 7 6 5 6 7 7 9 9 9 10 11 10 10 10 10 9 8 8 9 10 12 10 8 7 7 6 6 6 8
4 1 18 15 0 11 4 12 11 14 19 10 8 7 9 10 9 7 6 5 5 7 6 7 6 6 6 5 5 5 6 8 8 8 8 8 7 7 5 5 6 8 8 8 7 8 7 9 8
8 9 19 20 14 7 11 9 7 10 7 9 7 6 7 6 6 7 6 5 3 3 4 3 5 5 5 6 7 7 6 5 4 7 6 8 7 5 4 6 6 6 5 4 5 4 6 7 6
16 17 5 16 14 7 6 14 8 8 8 9 6 6 5 5 5 5 5 5 5 4 5 5 4 3 2 3 6 8 10 9 7 7 6 4 20 12 4 5 5 5 5 4 6 6 4 5 5
1 18 21 -0 11 2 6 18 13 6 5 6 7 6 5 5 5 4 5 3 5 6 5 6 5 6 8 8 8 6 7 7 8 5 8 16 -22 10 49 41 22 21 3 5 1 2 4 7 6
-9 -2 26 29 16 -5 7 3 6 4 3 1 4 8 9 4 5 4 4 4 5 6 7 8 7 9 8 8 7 7 4 4 4 7 10 13 -5 -3 15 17 -13 5 40 26 103 4 5 5 -0
Height
5878 5876 5874 5871 5872 5869 5870 5870 5869 5870 5872 5872 5871 5870 5871 5872 5874 5877 5875 5877 5879 5878 5876 5878 5877 5877 5879 5879 5880 5881 5886 5886 5888 5890 5892 5895 5893 5895 5896 5897 5900 5900 5900 5900 5901 5902 5903 5903 5903
5874 5875 5874 5872 5873 5871 5872 5873 5874 5871 5871 5874 5872 5872 5873 5873 5876 5877 5878 5879 5879 5877 5878 5879 5878 5879 5880 5881 5881 5883 5886 5886 5888 5890 5892 5895 5896 5897 5899 5901 5901 5902 5903 5903 5903 5905 5905 5905 5906
5876 5875 5875 5873 5872 5871 5873 5874 5874 5873 5875 5874 5873 5874 5875 5875 5877 5878 5879 5880 5880 5880 5880 5880 5880 5880 5881 5882 5882 5885 5887 5887 5889 5891 5893 5896 5897 5899 5899 5902 5903 5904 5905 5906 5907 5907 5909 5908 5909
5877 5877 5877 5876 5875 5876 5875 5876 5877 5876 5877 5876 5875 5875 5878 5879 5878 5878 5880 5881 5881 5880 5880 5880 5880 5880 5882 5883 5884 5885 5887 5887 5890 5892 5894 5897 5898 5900 5902 5903 5904 5907 5907 5908 5909 5910 5911 5910 5912
5880 5879 5878 5877 5876 5876 5877 5878 5880 5879 5880 5880 5879 5879 5880 5881 5879 5880 5881 5881 5882 5881 5880 5881 5881 5882 5884 5885 5885 5885 5886 5888 5890 5891 5892 5897 5897 5900 5903 5905 5907 5909 5909 5911 5911 5912 5913 5912 5913
5881 5879 5877 5876 5877 5877 5880 5881 5881 5882 5883 5882 5881 5881 5883 5884 5881 5882 5882 5883 5882 5881 5881 5882 5883 5885 5885 5885 5885 5884 5884 5887 5884 5890 5893 5898 5900 5900 5904 5906 5907 5910 5912 5912 5913 5914 5914 5914 5914
5885 5883 5883 5881 5881 5881 5883 5883 5883 5886 5887 5886 5885 5883 5887 5885 5883 5883 5885 5884 5883 5883 5883 5884 5885 5886 5886 5886 5884 5876 5876 5882 5889 5890 5891 5894 5901 5901 5905 5907 5908 5911 5913 5913 5914 5915 5915 5916 5916
5889 5887 5887 5884 5885 5884 5886 5887 5887 5890 5891 5890 5887 5886 5890 5887 5886 5887 5887 5885 5884 5885 5885 5885 5886 5885 5884 5884 5883 5881 5879 5887 5889 5891 5895 5896 5901 5904 5906 5908 5910 5912 5914 5915 5916 5916 5916 5917 5917
5891 5892 5891 5887 5889 5889 5888 5886 5890 5893 5892 5892 5891 5890 5892 5891 5890 5889 5888 5887 5886 5886 5885 5885 5885 5883 5880 5879 5880 5881 5883 5887 5888 5892 5893 5896 5900 5903 5906 5909 5911 5914 5915 5918 5918 5918 5919 5920 5921
5894 5895 5893 5890 5892 5893 5891 5890 5893 5893 5895 5896 5894 5893 5895 5894 5892 5890 5890 5889 5888 5888 5887 5886 5885 5881 5878 5877 5878 5880 5883 5886 5890 5893 5894 5896 5901 5904 5907 5910 5913 5916 5917 5919 5919 5920 5921 5923 5924
5897 5897 5893 5891 5894 5894 5894 5894 5894 5893 5896 5898 5896 5896 5896 5894 5892 5892 5893 5892 5891 5890 5889 5887 5886 5884 5881 5880 5881 5883 5884 5887 5890 5891 5896 5898 5902 5906 5908 5910 5915 5917 5919 5919 5920 5921 5922 5924 5925
5900 5897 5894 5895 5897 5896 5897 5898 5897 5896 5897 5898 5897 5896 5896 5895 5894 5894 5895 5894 5893 5891 5890 5890 5889 5888 5886 5885 5883 5883 5886 5888 5892 5895 5897 5900 5904 5906 5908 5910 5914 5918 5920 5920 5921 5921 5923 5924 5924
5903 5900 5897 5899 5899 5900 5899 5898 5897 5898 5898 5899 5899 5898 5898 5898 5897 5896 5896 5895 5895 5894 5893 5893 5893 5893 5891 5890 5887 5886 5887 5889 5892 5894 5897 5900 5904 5907 5909 5911 5914 5918 5920 5920 5921 5922 5923 5925 5925
5906 5903 5900 5901 5900 5900 5900 5901 5899 5898 5898 5899 5901 5900 5901 5900 5899 5898 5898 5898 5898 5896 5895 5895 5896 5896 5894 5892 5892 5891 5890 5891 5893 5896 5899 5902 5905 5908 5909 5911 5914 5917 5920 5921 5922 5923 5924 5924 5925
5908 5906 5904 5905 5904 5902 5902 5903 5902 5900 5899 5898 5900 5902 5902 5902 5901 5900 5900 5901 5901 5898 5897 5898 5898 5897 5896 5896 5895 5895 5894 5895 5895 5895 5900 5905 5908 5908 5910 5912 5915 5919 5920 5922 5923 5924 5924 5925 5926
5911 5909 5910 5909 5908 5906 5907 5906 5905 5903 5901 5900 5901 5902 5901 5902 5901 5901 5902 5903 5902 5902 5901 5900 5899 5899 5899 5899 5898 5898 5897 5899 5901 5902 5906 5908 5910 5911 5913 5915 5918 5920 5921 5924 5925 5924 5925 5925 5925
5910 5913 5911 5911 5910 5908 5910 5910 5910 5907 5905 5904 5904 5903 5904 5904 5903 5903 5904 5906 5905 5904 5904 5903 5901 5901 5902 5903 5902 5901 5902 5903 5905 5907 5909 5912 5914 5915 5916 5918 5921 5922 5923 5923 5923 5924 5925 5924 5924
5913 5912 5912 5912 5912 5911 5911 5912 5913 5911 5908 5906 5905 5904 5906 5905 5906 5907 5907 5906 5906 5906 5905 5904 5904 5904 5903 5905 5906 5905 5906 5908 5910 5911 5914 5915 5915 5916 5918 5920 5921 5921 5922 5922 5923 5923 5923 5923 5923
5915 5915 5916 5915 5915 5914 5912 5915 5915 5913 5911 5910 5909 5908 5908 5909 5908 5908 5908 5907 5905 5906 5905 5905 5905 5904 5906 5908 5910 5911 5911 5912 5913 5913 5914 5915 5915 5916 5918 5919 5920 5920 5921 5920 5921 5921 5921 5921 5922
5919 5918 5917 5918 5917 5916 5915 5914 5915 5914 5912 5912 5911 5911 5911 5911 5911 5910 5909 5908 5907 5906 5905 5903 5902 5903 5907 5909 5911 5913 5913 5914 5914 5915 5916 5916 5916 5917 5917 5919 5919 5919 5919 5919 5918 5919 5918 5918 5919
5918 5920 5921 5919 5920 5920 5918 5917 5916 5914 5915 5913 5913 5914 5913 5913 5913 5913 5912 5912 5911 5909 5908 5904 5904 5905 5907 5909 5911 5912 5913 5914 5916 5915 5915 5916 5916 5917 5918 5917 5917 5917 5916 5916 5916 5916 5916 5915 5915
5918 5920 5922 5921 5923 5922 5920 5918 5916 5916 5917 5915 5915 5916 5916 5916 5916 5916 5916 5915 5914 5913 5912 5910 5908 5908 5910 5911 5912 5911 5912 5913 5915 5915 5915 5915 5915 5915 5915 5914 5914 5913 5913 5912 5912 5911 5910 5909 5908
5919 5919 5922 5923 5922 5924 5921 5920 5919 5919 5919 5918 5917 5918 5918 5919 5919 5920 5920 5919 5917 5916 5917 5914 5912 5912 5914 5914 5914 5914 5914 5914 5915 5915 5914 5914 5914 5914 5914 5913 5915 5914 5913 5912 5911 5911 5909 5908 5907
5917 5918 5919 5918 5920 5922 5922 5922 5922 5923 5923 5922 5920 5920 5921 5922 5922 5923 5924 5922 5920 5920 5920 5918 5916 5916 5916 5917 5916 5916 5916 5916 5916 5916 5916 5916 5916 5915 5914 5914 5913 5912 5911 5910 5909 5908 5906 5905 5904
5915 5918 5917 5920 5920 5923 5922 5923 5924 5925 5925 5925 5923 5924 5924 5924 5924 5925 5925 5925 5924 5923 5922 5921 5920 5919 5920 5920 5919 5919 5919 5918 5917 5917 5916 5915 5914 5913 5912 5911 5910 5908 5907 5905 5903 5902 5901 5900 5898
5917 5918 5919 5921 5923 5925 5924 5925 5927 5928 5927 5926 5926 5927 5928 5927 5926 5927 5927 5927 5926 5925 5924 5925 5924 5922 5922 5922 5922 5922 5921 5921 5920 5919 5918 5916 5914 5912 5909 5906 5903 5900 5899 5898 5896 5895 5894 5894 5894
5917 5919 5920 5922 5925 5925 5926 5926 5927 5930 5929 5928 5927 5927 5929 5929 5929 5928 5927 5927 5926 5925 5925 5925 5925 5925 5924 5924 5923 5922 5921 5920 5919 5917 5916 5915 5914 5912 5910 5907 5903 5899 5897 5894 5891 5889 5889 5888 5888
5918 5921 5923 5924 5926 5926 5926 5927 5929 5931 5931 5929 5929 5929 5930 5931 5931 5931 5929 5929 5928 5927 5927 5926 5925 5924 5923 5922 5922 5921 5920 5919 5917 5916 5916 5913 5911 5908 5908 5906 5902 5898 5893 5890 5886 5883 5882 5882 5882
5919 5920 5920 5924 5926 5927 5927 5930 5930 5931 5931 5930 5929 5930 5931 5933 5933 5931 5931 5930 5929 5928 5928 5926 5926 5926 5924 5924 5922 5920 5918 5917 5916 5915 5911 5910 5906 5904 5902 5898 5890 5883 5879 5879 5873 5875 5875 5874 5873
5914 5917 5918 5922 5926 5928 5928 5931 5929 5929 5930 5930 5930 5931 5932 5934 5934 5933 5932 5931 5930 5930 5928 5927 5926 5924 5924 5923 5921 5919 5918 5917 5914 5912 5910 5908 5903 5899 5898 5892 5886 5876 5875 5870 5853 5863 5865 5864 5865